Regional Weather Roundup
Issued by NWS Cleveland, OH

Home | Current Version | Previous Version | Text Only | Print | Product List | Glossary Off
Versions: 1 2 3 4 5 6 7 8 9 10 11 12 13 14 15 16 17 18 19 20 21 22 23 24 25 26 27 28 29 30 31 32 33 34 35 36 37 38 39 40 41 42 43 44 45 46 47 48 49 50

000
ASUS41 KCLE 220102
RWRCLE
OHIO REGIONAL WEATHER ROUNDUP
NATIONAL WEATHER SERVICE CLEVELAND, OH
900 PM EDT FRI JUL 21 2017

NOTE: "FAIR" INDICATES FEW OR NO CLOUDS BELOW 12,000 FEET WITH NO
SIGNIFICANT WEATHER AND/OR OBSTRUCTIONS TO VISIBILITY.

OHZ001>008-015>018-024>027-034-035-043-044-220200-
   NORTHWEST OHIO

CITY           SKY/WX    TMP DP  RH WIND       PRES   REMARKS
DEFIANCE       CLEAR    N/A N/A N/A SW3       29.94R
FINDLAY        PTCLDY    81  68  64 SW5       29.94S
TOLEDO EXPRESS CLEAR     77  72  84 CALM      29.93S
TOLEDO EXEC    CLEAR     81  67  62 E3        29.94S
LIMA           CLOUDY    78  72  81 S3        29.95F
$$

OHZ009>014-019>023-028>033-038-089-220200-
   NORTHEAST OHIO

CITY           SKY/WX    TMP DP  RH WIND       PRES   REMARKS
CLE-HOPKINS    PTCLDY    81  69  67 NE6       29.97S
CLE-LAKEFRONT  CLEAR     77  71  82 NE5       29.94S
CUY CO. ARPT   MOCLDY    79  68  69 E5        29.97S
LORAIN-ELYRIA  CLEAR     75  66  73 N3        29.96S
ASHTABULA      CLOUDY    71  68  90 CALM      29.98S
AKRON-CANTON   PTCLDY    80  68  66 N5        29.97R
WOOSTER        MOCLDY    79  72  79 N6        29.97S
MANSFIELD      CLEAR     79  70  74 W3        29.98S
YOUNGSTOWN     MOCLDY    76  68  76 N5        29.97S
$$

OHZ042-051>053-060>062-070>072-077>081-220200-
  SOUTHWEST OHIO

CITY           SKY/WX    TMP DP  RH WIND       PRES   REMARKS
CINC-COVINGTON MOCLDY    78  72  81 SE10      29.98R
CINC-LUNKEN    MOCLDY    83  76  79 E5        29.96R HX  91
HAMILTON       CLOUDY    82  75  79 N5        29.96S
DAYTON         MOCLDY    75  73  93 E3        29.97F
WRIGHT-PAT AFB MOCLDY    76  76  98 NE5       29.96F
DAYTON GENERAL LGT RAIN  77  72  84 E5        29.96F
WILMINGTON     CLOUDY    77  73  87 NE5       29.97F
$$

OHZ036-037-039>041-045>050-054>059-063>069-073>076-082>088-220200-
  CENTRAL AND SOUTHEAST OHIO

CITY           SKY/WX    TMP DP  RH WIND       PRES   REMARKS
COLUMBUS       LGT RAIN  81  74  79 SW6       29.96F
OSU AIRPORT    CLOUDY    79  75  87 W3        29.96F
BOLTON FIELD   CLOUDY    78  74  87 CALM      29.96F
RICKENBACK AFB CLOUDY    78  74  87 SW3       29.96F
NEWARK         CLOUDY    79  72  79 SW3       29.96F
MARION         CLOUDY    80  71  74 W3        29.96F
LANCASTER      CLEAR     76  73  91 S3        29.98S
ZANESVILLE     CLOUDY    78  73  84 S3        29.97F
NEW PHILLY     NOT AVBL
$$




USA.gov is the U.S. government's official web portal to all federal, state and local government web resources and services.